map of UUS home
Great Circle Mapper logo
UUS - Airport
Location
City:  Yuzhno-Sakhalinsk, Sakhalin, Russian Federation (Russia)
ICAO / IATA:UHSS / UUS

Details
Type:Airport (Aerodrome, Airfield)
Use:Public/Civil
Latitude:4653'19"N (46.888672)
Longitude:14243'03"E (142.717531)
Elevation:59 ft (18 m)
Runways:1
Longest:11155 × 148 ft (3400 × 45 m), paved

Time
Time Zone:UTC+10 (DST+11)

Weather
METAR:UHSS 241700Z 20003MPS 4000 BR OVC004 20/20 Q1000 RMK QBB140 MT OBSC QFE748/0998
TAF:UHSS 241700Z 2418/2524 21004MPS 2100 BR BKN007 BKN020CB OVC100
TEMPO 2418/2424 1400 TSRA BR BKN006 BKN020CB
TEMPO 2500/2518 TSRA

Related Locations
Nearby:
Farthest:PSY: 11458 mi / 18439 km
Stanley (Port Stanley) [Port Stanley], FK

Find:

   beyond  
but within

Other Information
Maps:
NOTAMs:
Links:
Sources:

  
flag of Russian Federation (Russia)   

Sectional Chart

Flight Planning
at skyvector.com

Satellite Image

Google Maps Satellite View

 

Copyright © 2004-2014 Karl L. Swartz. All rights reserved.
The Great Circle Mapper name and logo are trademarks of the Great Circle Mapper.
All other trademarks mentioned herein belong to their respective owners.
Please see credits for attibutions and further copyright information.

  Follow gcmap on Facebook Follow gcmap on Twitter

hCard Microformat

Geo Microformat